x

Kadena Ab (47931) Weather Station

6:24pm - Thu 31st Jul 2014 All times are JST. 9 hours from GMT.

  • Wind
    12mph
  • Air Temp 84°f
  • Sea Pressure 988.5mb
  • Kadena Ab
  • Kadena Ab

More Historic Weather Station data

Upgrade to MSW Pro to gain access to the past 30 days of data for over 8000 Wavebouys and Weather Stations around the globe.

Join Pro

Comparision Forecast

View Surf forecast
   
Thu 07/31 6:24pm 12
mph
988.5mb 84f
6:22pm 8
mph
988.5mb 84f
6:20pm 10
mph
988.5mb 84f
6:06pm 8
mph
988.8mb 82f
5:59pm 9
mph
988.8mb 82f
5:58pm 9
mph
988.8mb 82f
5:56pm 8
mph
988.8mb 82f
5:52pm 9
mph
988.8mb 82f
5:46pm 9
mph
988.8mb 82f
5:33pm 14
mph
988.5mb 84f
4:58pm 10
mph
989.2mb 85f
3:58pm 21 24 mph 988.8mb 83f
3:34pm 16 24 mph 989.2mb 82f
3:33pm 16 24 mph 989.2mb 82f
3:31pm 18 24 mph 989.2mb 82f
3:30pm 17 24 mph 989.2mb 82f
3:26pm 16 27 mph 989.5mb 82f
3:23pm 16 27 mph 989.5mb 84f
3:20pm 21 31 mph 989.5mb 84f
2:58pm 23 31 mph 989.8mb 85f
2:07pm 22 36 mph 990.5mb 84f
2:04pm 18 36 mph 990.9mb 82f
1:58pm 23 31 mph 990.9mb 83f
1:55pm 20 31 mph 990.9mb 82f
1:50pm 21 31 mph 990.9mb 82f
1:49pm 21 31 mph 990.9mb 82f
1:47pm 20 31 mph 990.9mb 82f
1:32pm 23 35 mph 990.9mb 84f
1:17pm 18
mph
990.9mb 82f
1:11pm 20 23 mph 990.9mb 82f
1:08pm 17 25 mph 990.9mb 82f
1:00pm 21 25 mph 990.9mb 82f
12:59pm 20 24 mph 991.2mb 82f
12:58pm 17 24 mph 991.2mb 82f
12:56pm 17 24 mph 990.9mb 82f
12:48pm 21 27 mph 990.9mb 84f
11:58am 18 29 mph 991.5mb 84f
11:22am 14 28 mph 991.9mb 84f
11:21am 16 28 mph 991.9mb 84f
10:58am 15 28 mph 991.9mb 84f
10:10am 18 28 mph 992.6mb 82f
9:58am 22 27 mph 992.6mb 83f
9:32am 20 27 mph 992.6mb 82f
9:30am 21 27 mph 992.6mb 82f
9:26am 20 28 mph 992.6mb 82f
9:01am 20 28 mph 992.9mb 82f
8:58am 18 25 mph 992.9mb 82f
8:53am 18 24 mph 992.6mb 82f
8:52am 16 25 mph 992.6mb 82f
8:51am 17 25 mph 992.6mb 82f
8:37am 17 27 mph 992.6mb 81f
8:36am 15 27 mph 992.6mb 81f
8:35am 18 27 mph 992.6mb 81f
8:34am 20 27 mph 992.6mb 81f
8:33am 16 27 mph 992.6mb 81f
8:32am 15 27 mph 992.6mb 81f
8:31am 15 27 mph 992.6mb 81f
8:30am 14 27 mph 992.6mb 81f
8:28am 13 30 mph 992.6mb 82f
8:27am 14 30 mph 992.6mb 82f
8:26am 17 30 mph 992.6mb 82f
8:25am 16 30 mph 992.6mb 82f
8:24am 13 30 mph 992.6mb 82f
8:22am 16 30 mph 992.6mb 82f
8:20am 20 30 mph 992.6mb 82f
8:19am 21 30 mph 992.6mb 82f
8:18am 22 30 mph 992.6mb 82f
8:14am 17 30 mph 992.6mb 82f
8:07am 20 28 mph 992.6mb 82f
8:04am 17 28 mph 992.6mb 81f
8:02am 17 33 mph 992.6mb 81f
7:58am 22 35 mph 992.2mb 81f
7:57am 22 35 mph 991.9mb 81f
7:56am 21 35 mph 991.9mb 81f
7:54am 22 35 mph 992.2mb 81f
7:52am 23 35 mph 991.9mb 81f
7:47am 20 44 mph 992.2mb 81f
7:46am 21 50 mph 992.2mb 81f
7:45am 23 50 mph 992.2mb 81f
7:38am 37 59 mph 991.9mb 81f
7:37am 39 59 mph 991.5mb 81f
7:34am 44 59 mph 990.9mb 81f
7:33am 46 59 mph 990.5mb 81f
7:32am 45 59 mph 990.9mb 81f
7:28am 45 52 mph 990.2mb 81f
7:27am 41 52 mph 990.5mb 81f
7:26am 38 51 mph 990.9mb 81f
7:25am 36 46 mph 990.9mb 81f
7:24am 36 46 mph 990.9mb 81f
7:22am 38 46 mph 991.2mb 81f
7:21am 37 46 mph 991.2mb 81f
7:20am 32 46 mph 991.2mb 81f
7:19am 31 46 mph 991.5mb 81f
7:17am 36 46 mph 991.5mb 81f
7:07am 27 40 mph 992.2mb 81f
7:03am 30 40 mph 992.2mb 81f
7:01am 30 38 mph 992.2mb 81f
6:59am 28 37 mph 992.6mb 81f
6:58am 23 35 mph 992.6mb 81f
6:56am 21 35 mph 992.6mb 81f
6:54am 22 35 mph 992.6mb 81f
6:47am 22 33 mph 992.9mb 81f
6:30am 17 28 mph 992.9mb 81f
6:23am 21 28 mph 992.6mb 81f
6:20am 22 28 mph 992.6mb 81f
6:05am 22 28 mph 992.6mb 81f
5:59am 18 30 mph 992.6mb 81f
5:58am 18 30 mph 992.6mb 82f
5:50am 21 28 mph 992.2mb 82f
5:48am 20 25 mph 992.6mb 82f
5:46am 18 27 mph 992.6mb 82f
5:30am 18 31 mph 992.6mb 81f
5:27am 21 31 mph 992.6mb 81f
5:18am 21
mph
992.6mb 81f
5:03am 20 28 mph 992.9mb 81f
4:58am 18 36 mph 992.9mb 81f
4:56am 20 36 mph 993.2mb 81f
4:55am 22 36 mph 993.2mb 81f
4:49am 24 36 mph 993.2mb 81f
4:47am 25 36 mph 993.2mb 81f
4:46am 25 32 mph 993.2mb 81f
4:34am 23 29 mph 993.2mb 81f
4:33am 18 29 mph 993.2mb 81f
4:30am 23 31 mph 993.2mb 81f
4:24am 21 31 mph 993.6mb 81f
4:22am 21 31 mph 993.2mb 81f
4:21am 22 31 mph 993.6mb 81f
4:19am 21 31 mph 993.6mb 81f
4:17am 23 31 mph 993.6mb 81f
4:14am 23 31 mph 993.6mb 81f
4:13am 23 31 mph 993.6mb 81f
4:12am 22 31 mph 993.6mb 81f
4:11am 21 31 mph 993.6mb 81f
4:03am 17 25 mph 993.6mb 81f
4:02am 17 25 mph 993.6mb 81f
4:00am 17 23 mph 993.9mb 81f
3:59am 18 23 mph 993.6mb 81f
3:58am 16 23 mph 993.9mb 81f
3:57am 15 23 mph 993.9mb 81f
3:56am 17 25 mph 993.9mb 81f
3:54am 17 25 mph 993.9mb 81f
3:52am 15 25 mph 993.9mb 81f
3:48am 21 25 mph 993.9mb 81f
3:46am 18 23 mph 993.9mb 81f
3:45am 17 25 mph 993.9mb 81f
3:30am 20 29 mph 993.9mb 81f
3:25am 21 31 mph 993.9mb 81f
3:23am 22 31 mph 993.9mb 81f
3:17am 23 31 mph 993.9mb 81f
3:09am 23 33 mph 993.9mb 81f
3:08am 24 33 mph 993.6mb 81f
3:06am 25 33 mph 993.6mb 81f
3:02am 21 30 mph 993.9mb 81f
3:01am 18 31 mph 993.9mb 81f
2:58am 20 31 mph 993.9mb 81f
2:57am 16 31 mph 993.9mb 81f
2:54am 17 31 mph 993.9mb 81f
2:49am 21 32 mph 993.9mb 81f
2:45am 20 32 mph 993.9mb 81f
2:36am 20 35 mph 993.9mb 81f
2:34am 20 35 mph 993.9mb 81f
2:33am 22 35 mph 993.9mb 81f
2:31am 25 35 mph 993.9mb 81f
2:27am 16 28 mph 993.9mb 81f
2:23am 17 28 mph 993.9mb 81f
2:21am 21 28 mph 993.9mb 81f
2:13am 17
mph
994.2mb 81f
2:12am 17
mph
993.9mb 81f
2:10am 16
mph
993.9mb 81f
2:04am 18
mph
993.9mb 81f
2:01am 20
mph
993.9mb 81f
1:58am 17
mph
994.2mb 81f
1:57am 17
mph
994.2mb 81f
1:53am 16
mph
994.2mb 81f
1:30am 20 27 mph 994.2mb 81f
1:12am 16 28 mph 994.2mb 81f
1:10am 17 28 mph 994.2mb 81f
1:04am 20 29 mph 994.2mb 81f
1:00am 21 29 mph 994.2mb 81f
12:58am 21 29 mph 994.6mb 81f
12:56am 22 29 mph 994.6mb 81f
12:53am 23 29 mph 994.6mb 81f
12:49am 20 24 mph 994.6mb 81f
12:31am 21 28 mph 994.6mb 81f
12:30am 18 28 mph 994.6mb 81f
12:28am 21 28 mph 994.6mb 81f
12:27am 23 28 mph 994.6mb 81f
12:22am 21
mph
994.6mb 81f
12:21am 23
mph
994.6mb 81f
12:20am 22 24 mph 994.6mb 81f
12:18am 18 24 mph 994.9mb 81f
12:16am 15 24 mph 994.9mb 81f
12:14am 17 24 mph 994.9mb 81f
12:09am 16 27 mph 995.3mb 81f
12:07am 17 29 mph 995.3mb 81f
12:06am 17 29 mph 995.3mb 81f
12:00am 23 39 mph 995.3mb 81f
Wed 07/30 11:58pm 24 39 mph 995.3mb 80f
11:55pm 27 39 mph 995.3mb 81f
11:51pm 27 39 mph 995.3mb 81f
11:18pm 24 35 mph 995.3mb 81f
11:14pm 22 32 mph 995.6mb 81f
11:13pm 23 32 mph 995.6mb 81f
11:12pm 23 32 mph 995.6mb 81f
11:09pm 24 32 mph 995.6mb 81f
11:03pm 22 32 mph 995.6mb 81f
10:58pm 23 33 mph 995.6mb 81f
10:53pm 25 33 mph 995.6mb 81f
10:46pm 21 36 mph 995.9mb 81f
10:37pm 25 43 mph 995.9mb 81f
10:31pm 29 43 mph 995.9mb 81f
10:25pm 28 43 mph 995.9mb 81f
10:23pm 30 43 mph 995.9mb 81f
10:21pm 30 43 mph 996.3mb 81f
10:20pm 32 43 mph 996.3mb 81f
10:19pm 31 40 mph 996.3mb 81f
10:17pm 29 41 mph 996.3mb 81f
10:16pm 31 41 mph 996.3mb 81f
10:14pm 31 41 mph 996.3mb 81f
10:11pm 33 43 mph 996.3mb 81f
10:10pm 32 43 mph 996.3mb 81f
10:04pm 36 47 mph 996.3mb 81f
9:58pm 36 50 mph 996.3mb 80f
9:55pm 33 50 mph 996.3mb 81f
9:54pm 31 50 mph 996.3mb 81f
9:52pm 33 50 mph 996.3mb 79f
9:51pm 37 50 mph 996.3mb 79f
9:50pm 39 50 mph 995.9mb 79f
9:49pm 39 50 mph 995.9mb 79f
9:47pm 35 45 mph 996.3mb 79f
9:46pm 35 45 mph 996.3mb 79f
9:32pm 37 47 mph 996.3mb 79f
9:27pm 37 47 mph 996.6mb 79f
9:26pm 39 47 mph 996.6mb 79f
9:25pm 41 51 mph 996.6mb 79f
9:24pm 40 51 mph 996.6mb 79f
9:23pm 37 51 mph 996.6mb 79f
9:22pm 35 51 mph 996.6mb 79f
9:21pm 36 51 mph 997mb 81f
9:19pm 32 51 mph 996.6mb 81f
9:12pm 32 44 mph 997mb 81f
9:09pm 33 44 mph 997mb 81f
9:05pm 31 48 mph 997mb 81f
9:04pm 30 48 mph 997mb 81f
9:02pm 31 48 mph 997mb 81f
8:58pm 31 48 mph 997mb 80f
8:26pm 30 40 mph 997.3mb 81f
8:17pm 33 44 mph 997.3mb 81f
8:15pm 35 44 mph 997.3mb 81f
8:12pm 31 43 mph 997.3mb 81f
8:10pm 35 43 mph 997.3mb 81f
8:07pm 25 38 mph 997.3mb 81f
7:58pm 25 33 mph 997.3mb 81f
7:57pm 27 33 mph 997.3mb 81f
7:56pm 25 38 mph 997.3mb 81f
7:52pm 24 38 mph 997.3mb 81f
7:51pm 25 44 mph 997.3mb 81f
7:49pm 31 44 mph 997.3mb 81f
7:46pm 30 44 mph 997.3mb 81f
6:58pm 29 37 mph 997.3mb 82f
6:11pm 21 30 mph 998.3mb 81f
6:09pm 24 30 mph 998.3mb 81f
5:58pm 23 32 mph 998.3mb 80f
5:52pm 24 32 mph 998.6mb 81f
5:50pm 25 30 mph 998.6mb 81f
5:49pm 25 30 mph 998.6mb 81f
5:46pm 20 32 mph 998.6mb 81f
5:33pm 21 29 mph 998.6mb 81f
5:31pm 18 29 mph 998.6mb 81f
5:30pm 20 29 mph 998.6mb 81f
5:29pm 18 29 mph 998.6mb 81f
5:27pm 23 30 mph 998.6mb 79f
5:26pm 23 30 mph 998.6mb 79f
5:24pm 23 30 mph 998.6mb 79f
5:21pm 21 30 mph 999mb 79f
5:18pm 23 35 mph 999mb 81f
5:17pm 22 35 mph 999mb 81f
5:16pm 22 35 mph 999mb 81f
5:14pm 23 35 mph 999mb 81f
5:13pm 22 35 mph 999mb 81f
5:10pm 28 35 mph 999mb 82f
5:08pm 25 32 mph 999mb 82f
5:00pm 25 33 mph 999mb 84f
4:58pm 27 35 mph 998.6mb 84f
4:20pm 24 33 mph 999.3mb 82f
3:58pm 29 37 mph 999.7mb 83f
3:48pm 24 36 mph 999.7mb 82f
3:47pm 27 36 mph 999.7mb 82f
3:28pm 25 37 mph 999.7mb 88f
2:58pm 25 33 mph 999.7mb 87f
2:32pm 24 35 mph 999.7mb 88f
2:28pm 29 35 mph 999.7mb 88f
1:58pm 28 32 mph 1000mb 88f
1:49pm 25 31 mph 1000mb 88f
1:30pm 27 33 mph 1000mb 86f
1:25pm 25 33 mph 1000mb 86f
1:07pm 23 35 mph 1000.3mb 86f
1:06pm 24 35 mph 1000.3mb 86f
1:02pm 24 35 mph 1000.3mb 86f
12:58pm 28 35 mph 1000.3mb 86f
12:54pm 23 35 mph 1000.3mb 86f
12:47pm 20 31 mph 1000.3mb 84f
12:36pm 28 32 mph 1000.3mb 86f
12:33pm 24 31 mph 1000.3mb 86f
12:24pm 21 32 mph 1000.7mb 86f
12:21pm 23 35 mph 1000.7mb 86f
12:13pm 29 35 mph 1000.7mb 88f
12:09pm 24 35 mph 1000.7mb 88f
12:08pm 27 35 mph 1000.7mb 86f
12:07pm 25 35 mph 1000.7mb 86f
12:06pm 25 35 mph 1000.7mb 86f
12:02pm 29 35 mph 1000.7mb 86f
11:58am 23 32 mph 1001mb 86f
11:54am 23
mph
1001mb 86f
11:50am 25 35 mph 1001mb 86f
11:38am 24 31 mph 1001.4mb 86f
11:33am 24 31 mph 1001.4mb 84f
11:30am 22 29 mph 1001.4mb 84f
11:28am 23 29 mph 1001.4mb 84f
11:22am 24 29 mph 1001.4mb 84f
11:20am 20 30 mph 1001.4mb 84f
11:12am 28 30 mph 1001.4mb 82f
11:08am 21 28 mph 1001.4mb 82f
11:07am 21 25 mph 1001.4mb 82f
10:58am 20 23 mph 1001.7mb 82f
10:55am 20 24 mph 1001.7mb 82f
10:53am 18 24 mph 1001.7mb 82f
10:50am 16 24 mph 1001.7mb 82f
10:46am 18 24 mph 1001.7mb 82f
10:35am 23 32 mph 1001.7mb 82f
10:34am 24 32 mph 1001.7mb 82f
10:33am 23 32 mph 1001.7mb 84f
10:32am 22 32 mph 1001.7mb 84f
10:26am 16 30 mph 1001.7mb 84f
10:23am 18 30 mph 1001.7mb 86f
10:18am 25 32 mph 1001.7mb 86f
9:58am 21 29 mph 1001.7mb 85f
9:47am 24 33 mph 1001.7mb 84f
9:46am 27 33 mph 1001.7mb 84f
9:32am 17
mph
1001.7mb 82f
9:25am 18 28 mph 1002mb 82f
9:22am 20 28 mph 1002mb 82f
9:20am 22 28 mph 1002mb 82f
9:18am 25
mph
1002mb 84f
9:16am 24 28 mph 1002mb 84f
9:06am 23 31 mph 1002mb 86f
8:58am 25
mph
1001.7mb 87f
8:15am 22 29 mph 1002.4mb 86f
8:11am 23 29 mph 1002.4mb 86f
7:58am 22 30 mph 1002mb 85f
7:21am 23 30 mph 1002.4mb 84f
7:10am 20 31 mph 1002.4mb 84f
7:01am 22 28 mph 1002mb 84f
6:59am 20 28 mph 1002mb 84f
6:58am 18 28 mph 1002mb 84f
6:51am 21 27 mph 1002mb 84f
6:36am 16 25 mph 1002mb 84f
6:34am 18 25 mph 1002mb 84f
6:28am 18
mph
1002mb 84f
6:13am 18
mph
1002mb 84f
6:10am 16
mph
1002mb 84f
5:58am 18 25 mph 1002mb 83f
5:36am 18 27 mph 1002mb 84f
5:25am 23 27 mph 1002mb 84f
4:58am 16
mph
1002.4mb 83f
4:32am 16 25 mph 1002.4mb 84f
4:21am 17 23 mph 1002.4mb 82f
4:20am 16 23 mph 1002.4mb 82f
4:18am 15 23 mph 1002.4mb 82f
4:16am 17 23 mph 1002.4mb 82f
4:14am 17 23 mph 1002.4mb 82f
3:58am 15 23 mph 1002.4mb 83f
3:49am 16
mph
1002.4mb 84f
3:48am 16
mph
1002.4mb 84f
3:47am 16
mph
1002.4mb 84f
3:28am 16 30 mph 1002.4mb 82f
3:27am 17 30 mph 1002.4mb 84f
3:26am 20 30 mph 1002.4mb 84f
3:24am 21 30 mph 1002.4mb 84f
3:22am 21
mph
1002.4mb 84f
3:21am 17
mph
1002.4mb 84f
3:14am 16 27 mph 1002.7mb 84f
3:12am 16 27 mph 1002.7mb 84f
2:58am 22 25 mph 1002.7mb 84f
2:48am 20
mph
1002.7mb 84f
2:31am 21
mph
1002.7mb 84f
2:22am 18
mph
1002.7mb 84f
1:58am 16 24 mph 1003.1mb 84f
1:50am 17
mph
1003.1mb 84f
1:29am 22 27 mph 1003.1mb 84f
1:27am 20 27 mph 1003.1mb 84f
12:58am 17
mph
1003.4mb 84f
12:51am 17
mph
1003.7mb 84f
12:10am 16 29 mph 1004.1mb 84f
12:07am 18 29 mph 1004.1mb 84f
12:03am 20 28 mph 1004.1mb 84f
12:02am 18 28 mph 1004.1mb 84f
Tue 07/29 11:58pm 20 28 mph 1004.1mb 84f
11:57pm 20 28 mph 1004.1mb 84f
11:56pm 21 28 mph 1004.1mb 84f
11:54pm 22 28 mph 1003.7mb 84f
11:35pm 21 28 mph 1004.1mb 84f
11:07pm 21 27 mph 1004.1mb 84f
11:02pm 18 27 mph 1004.4mb 84f
10:58pm 21 25 mph 1004.4mb 84f
10:52pm 20 29 mph 1004.4mb 84f
10:50pm 23 29 mph 1004.4mb 84f
10:47pm 23 29 mph 1004.4mb 84f
10:46pm 23 29 mph 1004.4mb 84f
10:35pm 22 28 mph 1004.4mb 84f
9:58pm 18
mph
1004.7mb 84f
9:10pm 18
mph
1004.7mb 84f
9:04pm 17 23 mph 1004.7mb 84f
8:58pm 20 23 mph 1004.7mb 84f
7:58pm 22 28 mph 1004.7mb 84f
7:54pm 23 28 mph 1004.7mb 84f
7:46pm 20
mph
1005.1mb 84f
7:33pm 17 25 mph 1004.7mb 84f
7:28pm 20 25 mph 1004.7mb 84f
7:24pm 18
mph
1004.7mb 84f
7:08pm 20 29 mph 1004.4mb 84f
7:06pm 22 29 mph 1004.4mb 84f
6:58pm 21
mph
1004.4mb 85f
6:54pm 18 27 mph 1004.4mb 86f
6:53pm 21 27 mph 1004.4mb 86f
6:33pm 23 29 mph 1004.7mb 86f
5:58pm 22 33 mph 1004.7mb 87f
4:58pm 29 36 mph 1004.4mb 89f
3:58pm 27 31 mph 1004.7mb 91f
2:58pm 25 35 mph 1005.1mb 92f
1:58pm 22 32 mph 1005.1mb 91f
12:58pm 23 30 mph 1005.8mb 91f
11:58am 24 30 mph 1006.4mb 91f
10:58am 21
mph
1006.4mb 91f
9:58am 21
mph
1006.8mb 89f
8:58am 18 24 mph 1006.8mb 86f
7:58am 10
mph
1006.8mb 85f
6:58am 9
mph
1006.4mb 82f
5:58am 7
mph
1006.1mb 80f
5:12am 8
mph
1006.1mb 81f
4:58am 6
mph
1006.1mb 80f
3:58am 8
mph
1006.1mb 80f
2:58am 8
mph
1005.8mb 80f
2:14am 12
mph
1006.4mb 81f
1:59am 6
mph
1006.4mb 81f
1:58am 7
mph
1006.4mb 81f
1:53am 8
mph
1006.4mb 81f
1:08am 9
mph
1006.8mb 82f
1:01am 13
mph
1006.8mb 82f
12:58am 13
mph
1006.8mb 83f
12:21am 13
mph
1006.8mb 82f
12:15am 9
mph
1006.8mb 82f
12:13am 10
mph
1006.8mb 82f
12:12am 10
mph
1006.8mb 82f
12:10am 13
mph
1006.8mb 82f
Mon 07/28 11:58pm 10
mph
1006.8mb 83f
10:58pm 14
mph
1007.1mb 83f
10:49pm 15
mph
1006.8mb 84f
10:02pm 13
mph
1006.8mb 84f
9:58pm 14
mph
1006.8mb 83f
8:58pm 15
mph
1006.1mb 83f
7:58pm 13
mph
1005.8mb 83f
7:27pm 12
mph
1005.4mb 84f
7:21pm 9
mph
1005.4mb 84f
7:03pm 14
mph
1005.4mb 84f
6:58pm 13
mph
1005.4mb 85f
5:58pm 15
mph
1005.4mb 86f
4:58pm 16 23 mph 1005.8mb 88f
4:16pm 20
mph
1006.1mb 88f
4:09pm 17
mph
1006.4mb 90f
3:58pm 15 20 mph 1006.1mb 89f
3:54pm 15
mph
1006.1mb 90f
3:20pm 15 23 mph 1006.4mb 90f
3:07pm 16
mph
1006.4mb 90f
2:58pm 15
mph
1006.4mb 89f
2:33pm 16
mph
1006.8mb 90f
2:13pm 15
mph
1006.8mb 90f
2:00pm 16
mph
1006.8mb 90f
1:59pm 15
mph
1006.8mb 90f
1:58pm 16
mph
1006.8mb 89f
1:04pm 16
mph
1007.5mb 88f
1:02pm 16
mph
1007.5mb 88f
12:58pm 16
mph
1007.8mb 88f
12:50pm 16
mph
1007.8mb 88f
12:19pm 15 22 mph 1007.8mb 88f
11:58am 15
mph
1008.1mb 89f
11:28am 15
mph
1008.1mb 88f
11:27am 14
mph
1008.1mb 88f
11:16am 15
mph
1008.1mb 88f
11:10am 15
mph
1008.1mb 88f
11:06am 17
mph
1008.1mb 88f
11:05am 15
mph
1008.1mb 88f
10:58am 14
mph
1008.1mb 86f
10:24am 14
mph
1008.1mb 84f
10:08am 20
mph
1008.5mb 84f
10:01am 16
mph
1008.5mb 84f
9:58am 15
mph
1008.5mb 84f
9:32am 14
mph
1008.5mb 82f
9:28am 14 17 mph 1008.5mb 82f
9:10am 13
mph
1008.5mb 82f
8:59am 9
mph
1008.5mb 84f
8:58am 9
mph
1008.5mb 84f
8:31am 10
mph
1008.5mb 82f
8:21am 13
mph
1008.1mb 84f
8:08am 9
mph
1008.1mb 82f
8:07am 10
mph
1008.1mb 82f
7:58am 7
mph
1008.1mb 82f
7:54am 8
mph
1008.1mb 82f
7:53am 8
mph
1008.1mb 82f
7:49am 8
mph
1008.1mb 82f
7:33am 9
mph
1008.1mb 82f
7:31am 9
mph
1008.1mb 82f
7:30am 8
mph
1008.1mb 82f
7:26am 8
mph
1007.8mb 82f
7:25am 8
mph
1007.8mb 82f
7:21am 8
mph
1007.8mb 82f
6:58am 7
mph
1007.5mb 80f
5:58am 6
mph
1007.5mb 78f
4:58am 5
mph
1007.5mb 78f
3:58am 6
mph
1007.8mb 78f
2:58am 5
mph
1008.1mb 78f
2:11am 6
mph
1008.5mb 81f
2:01am 8
mph
1008.5mb 81f
1:59am 8
mph
1008.5mb 81f
1:58am 7
mph
1008.5mb 80f
1:51am 6
mph
1008.5mb 81f
1:50am 7
mph
1008.5mb 81f
1:49am 8
mph
1008.5mb 81f
12:58am 7
mph
1008.8mb 80f
Sun 07/27 11:58pm 7
mph
1008.8mb 80f
10:59pm 10
mph
1008.8mb 82f
10:58pm 9
mph
1008.8mb 83f
9:58pm 10
mph
1008.8mb 83f
8:58pm 12
mph
1008.5mb 83f
7:58pm 9
mph
1008.5mb 83f
6:58pm 13
mph
1008.1mb 84f